Delta Virtual Airport Information Service

Minneapolis Saint Paul International Airport

ICAO: KMSP Country: United States
Latitude: 44.882 Longitude: -93.2217
Latest Arrival : DAL182 (KBOS-KMSP) Latest Departure : DALJUMP (KMSP-KATL)


WX CaptureLIVE
Data provided by noaa.gov | Fetched at 12:05:28

METAR : KMSP 151653Z 12006KT 10SM FEW070 25/11 A3018 RMK AO2 SLP217 T02500111

TAF : KMSP 151441Z 1515/1618 06005KT P6SM SKC FM160300 09005KT P6SM SKC


Runway Data for KMSP
Data provided by openaviationdata.com

Runway ID Mag Var Hdg Length Elevation Surface ILS Freq ILS Id ILS Slope
4 2 42° 10999 ft 841 ft Concrete 109.3 IAPL 3
12L 2 119° 8190 ft 841 ft Asphalt 110.7 IPJL 3
12R 2 119° 9988 ft 841 ft Asphalt 110.3 IHKZ 3
22 2 222° 10999 ft 841 ft Concrete 110.5 ISIJ 0
30L 2 299° 9988 ft 841 ft Asphalt 110.3 IMSP 3
30R 2 299° 8190 ft 841 ft Asphalt 110.7 IINN 3

Minneapolis Saint Paul International Airport, United States
Use only for reference purposes



Not for navigational purposes.